Notices

What's New in latest Release from April 7th, 2021:

- Updated Glossary, including Speed of Maximum Gust, and Total Hourly Precipitation

- Updated national and regional climate services offices contacts and prices information

- Addition of station inventory lists for 1981-2010, 1971-2000, and 1961-1990 Normals.

If you haven't already, please take our survey and provide feedback about our website: https://eccc.sondage-survey.ca/f/LanguageSelection.aspx?s=442ca660-fcf1-47c0-95a9-59707d6fd709

Hourly Data Report for August 22, 2018

TORONTO CITY
ONTARIO
Current Station Operator: ECCC - MSC

43°40'00.000" N
79°24'00.000" W
112.50 m
6158355
71508
XTO

Download Data

Hourly Data (August 2018)
Hourly Data Report for August 22, 2018
TIME
LST
Temp Definition
°C
Dew Point Definition
°C
Rel Hum Definition
%
Precip. Amount Definition
mm

Wind Dir Definition
10's deg

Wind Spd Definition
km/h
Visibility Definition
km
Stn Press Definition
kPa
Hmdx Definition


Wind Chill Definition


Weather Definition


00:00 20.5 16.5 78 0.0 LegendMM LegendMM   99.10 25   LegendNANA
01:00 20.2 16.4 79 0.0 LegendMM LegendMM   99.13 25   LegendNANA
02:00 19.6 16.0 80 0.0 LegendMM LegendMM   99.16     LegendNANA
03:00 19.6 16.2 81 0.0 LegendMM LegendMM   99.20     LegendNANA
04:00 19.8 15.9 78 0.0 LegendMM LegendMM   99.23     LegendNANA
05:00 19.4 16.1 82 0.0 LegendMM LegendMM   99.26     LegendNANA
06:00 19.4 15.9 80 0.0 LegendMM LegendMM   99.37     LegendNANA
07:00 19.6 15.9 79 0.2 LegendMM LegendMM   99.41     LegendNANA
08:00 19.6 15.7 78 0.0 LegendMM LegendMM   99.37     LegendNANA
09:00 20.3 16.0 77 0.0 LegendMM LegendMM   99.53 25   LegendNANA
10:00 21.2 15.0 68 0.0 LegendMM LegendMM   99.57 25   LegendNANA
11:00 21.5 14.0 62 0.0 LegendMM LegendMM   99.60 25   LegendNANA
12:00 21.9 13.9 60 0.0 LegendMM LegendMM   99.61 25   LegendNANA
13:00 21.4 13.1 59 0.0 LegendMM LegendMM   99.67     LegendNANA
14:00 20.0 12.9 64 0.0 LegendMM LegendMM   99.71     LegendNANA
15:00 20.8 12.0 57 0.0 LegendMM LegendMM   99.73     LegendNANA
16:00 20.5 10.5 53 0.0 LegendMM LegendMM   99.76     LegendNANA
17:00 20.1 4.7 36 0.0 LegendMM LegendMM   99.88     LegendNANA
18:00 20.2 5.6 39 0.0 LegendMM LegendMM   99.92     LegendNANA
19:00 19.3 7.4 46 0.0 LegendMM LegendMM   99.99     LegendNANA
20:00 18.1 8.1 52 0.0 LegendMM LegendMM   100.08     LegendNANA
21:00 17.0 9.1 60 0.0 LegendMM LegendMM   100.12     LegendNANA
22:00 17.1 9.6 61 0.0 LegendMM LegendMM   100.12     LegendNANA
23:00 16.8 10.3 65 0.0 LegendMM LegendMM   100.11     LegendNANA

Notes on Data Quality.

Legend

  • E = Estimated
  • M = Missing
  • NA = Not Available*
  • [empty] = Indicates an unobserved value
Date modified: